TimeCDT,TemperatureF,Dew PointF,Humidity,Sea Level PressureIn,VisibilityMPH,Wind Direction,Wind SpeedMPH,Gust SpeedMPH,PrecipitationIn,Events,Conditions,WindDirDegrees,DateUTC
12:53 AM,39.9,30.0,68,30.01,3.0,WSW,5.8,-,N/A,,Haze,250,2012-11-01 05:53:00
1:53 AM,43.0,30.0,60,30.00,3.0,WSW,4.6,-,N/A,,Haze,250,2012-11-01 06:53:00
2:53 AM,43.0,32.0,65,29.99,10.0,WSW,5.8,-,N/A,,Partly Cloudy,240,2012-11-01 07:53:00
3:53 AM,45.0,33.1,63,29.98,3.0,WSW,4.6,-,N/A,,Haze,250,2012-11-01 08:53:00
4:28 AM,44.6,33.8,66,29.97,2.5,WSW,3.5,-,N/A,,Haze,250,2012-11-01 09:28:00
4:50 AM,44.6,33.8,66,29.97,3.0,WSW,4.6,-,N/A,,Haze,240,2012-11-01 09:50:00
4:53 AM,45.0,33.1,63,29.97,4.0,WSW,3.5,-,N/A,,Haze,240,2012-11-01 09:53:00
5:53 AM,46.0,33.1,61,29.98,3.0,WSW,5.8,-,N/A,,Haze,250,2012-11-01 10:53:00
6:53 AM,45.0,33.1,63,29.97,10.0,Calm,Calm,-,N/A,,Overcast,0,2012-11-01 11:53:00
7:53 AM,44.1,33.1,65,29.97,10.0,SSW,3.5,-,N/A,,Clear,210,2012-11-01 12:53:00
8:53 AM,43.0,35.1,74,29.99,10.0,SSW,5.8,-,N/A,,Clear,210,2012-11-01 13:53:00
9:53 AM,52.0,36.0,54,29.97,4.0,Calm,Calm,-,N/A,,Haze,0,2012-11-01 14:53:00
10:53 AM,57.9,39.0,49,29.97,10.0,Calm,Calm,-,N/A,,Clear,0,2012-11-01 15:53:00
11:53 AM,61.0,39.9,46,29.95,10.0,East,4.6,-,N/A,,Scattered Clouds,80,2012-11-01 16:53:00
12:53 PM,62.1,39.9,44,29.93,10.0,NE,5.8,-,N/A,,Overcast,50,2012-11-01 17:53:00
1:53 PM,64.0,39.9,41,29.91,10.0,NE,9.2,-,N/A,,Clear,40,2012-11-01 18:53:00
2:53 PM,64.9,39.9,40,29.91,10.0,North,12.7,-,N/A,,Clear,350,2012-11-01 19:53:00
3:53 PM,64.0,41.0,43,29.91,10.0,North,11.5,-,N/A,,Clear,360,2012-11-01 20:53:00
4:53 PM,61.0,41.0,48,29.92,10.0,NNW,11.5,-,N/A,,Clear,340,2012-11-01 21:53:00
5:53 PM,55.0,41.0,59,29.94,10.0,North,10.4,-,N/A,,Clear,360,2012-11-01 22:53:00
6:53 PM,51.1,39.0,63,29.96,10.0,North,8.1,-,N/A,,Clear,350,2012-11-01 23:53:00
7:53 PM,48.9,39.0,69,29.96,10.0,North,9.2,-,N/A,,Clear,360,2012-11-02 00:53:00
8:53 PM,45.0,37.0,74,29.98,10.0,North,8.1,-,N/A,,Clear,350,2012-11-02 01:53:00
9:53 PM,43.0,35.1,74,29.98,10.0,North,8.1,-,N/A,,Clear,350,2012-11-02 02:53:00
10:53 PM,42.1,34.0,73,29.99,10.0,NNE,5.8,-,N/A,,Clear,20,2012-11-02 03:53:00
11:53 PM,41.0,32.0,70,30.00,10.0,NNE,9.2,-,N/A,,Clear,30,2012-11-02 04:53:00